FW6176 Weather Reports


Display with metric or nautical units.
time (UTC)temp
F
wind
direction
speed
MPH
gust
MPH
rain 1hr
in
rain 24hr
in
rain mn
in
humidity
%
barometer
mb
20260831230112 98 252 0.0 5.0 0.00 0.00 0.00 38 1013.4
20260831224557 98 251 0.0 3.0 0.00 0.00 0.00 37 1013.3
20260831223107 99 184 0.0 2.0 0.00 0.00 0.00 36 1013.3
20260831221559 99 250 0.0 3.0 0.00 0.00 0.00 35 1013.4
20260831220055 100 193 0.0 2.0 0.00 0.00 0.00 34 1013.4
20260831214606 101 264 0.0 2.0 0.00 0.00 0.00 33 1013.4
20260831213052 101 238 0.0 7.0 0.00 0.00 0.00 35 1013.5
20260831211552 101 246 0.0 2.0 0.00 0.00 0.00 38 1013.4
20260831210051 101 271 0.0 1.0 0.00 0.00 0.00 37 1013.5
20260831204547 101 269 0.0 6.0 0.00 0.00 0.00 39 1013.6
20260831203046 100 302 0.0 3.0 0.00 0.00 0.00 40 1013.7
20260831201543 100 257 0.0 4.0 0.00 0.00 0.00 40 1013.8
20260831200043 100 258 0.0 3.0 0.00 0.00 0.00 41 1014.0
20260831194550 100 248 0.0 4.0 0.00 0.00 0.00 43 1014.1
20260831193037 100 273 0.0 2.0 0.00 0.00 0.00 41 1014.3
20260831191532 99 55 0.0 3.0 0.00 0.00 0.00 40 1014.4
20260831190031 99 127 1.0 4.0 0.00 0.00 0.00 42 1014.5
20260831184529 99 270 0.0 2.0 0.00 0.00 0.00 43 1014.7
20260831183029 98 122 0.0 5.0 0.00 0.00 0.00 45 1014.8
20260831181525 98 304 0.0 3.0 0.00 0.00 0.00 44 1015.2
20260831180128 98 228 0.0 3.0 0.00 0.00 0.00 43 1015.5
20260831174520 96 91 0.0 9.0 0.00 0.00 0.00 44 1015.6
20260831173019 97 62 0.0 2.0 0.00 0.00 0.00 43 1015.7
20260831171519 96 113 0.0 4.0 0.00 0.00 0.00 45 1016.0
20260831170032 96 263 0.0 4.0 0.00 0.00 0.00 46 1016.1
20260831164516 95 248 0.0 4.0 0.00 0.00 0.00 44 1016.2
20260831163007 94 239 0.0 3.0 0.00 0.00 0.00 47 1016.4
20260831161503 94 255 0.0 3.0 0.00 0.00 0.00 47 1016.4
20260831160101 93 139 0.0 5.0 0.00 0.00 0.00 46 1016.4
20260831154558 92 14 0.0 3.0 0.00 0.00 0.00 47 1016.4
20260831153058 91 316 0.0 5.0 0.00 0.00 0.00 46 1016.6
20260831151604 91 303 0.0 5.0 0.00 0.00 0.00 48 1016.6
20260831150050 90 136 0.0 3.0 0.00 0.00 0.00 49 1016.3
20260831144546 89 120 0.0 3.0 0.00 0.00 0.00 48 1016.1
20260831143044 88 112 0.0 4.0 0.00 0.00 0.00 49 1016.0
20260831141542 87 266 0.0 4.0 0.00 0.00 0.00 50 1016.0
20260831140048 87 281 0.0 3.0 0.00 0.00 0.00 51 1016.1
20260831134538 85 274 0.0 2.0 0.00 0.00 0.00 53 1015.9
20260831133033 83 143 0.0 2.0 0.00 0.00 0.00 55 1015.8
20260831131526 81 113 0.0 3.0 0.00 0.00 0.00 57 1016.0
20260831130024 80 148 0.0 2.0 0.00 0.00 0.00 58 1015.9
20260831124523 79 276 0.0 1.0 0.00 0.00 0.00 59 1015.7
20260831123025 79 153 0.0 2.0 0.00 0.00 0.00 59 1015.5
20260831121519 78 58 0.0 2.0 0.00 0.00 0.00 60 1015.4
20260831120018 76 240 0.0 2.0 0.00 0.00 0.00 62 1015.1
20260831114520 76 115 0.0 2.0 0.00 0.00 0.00 63 1015.2
20260831113017 76 124 0.0 3.0 0.00 0.00 0.00 63 1015.2
20260831111514 76 122 0.0 2.0 0.00 0.00 0.00 63 1014.9
20260831110015 75 116 0.0 1.0 0.00 0.00 0.00 64 1014.9
20260831104521 74 125 0.0 1.0 0.00 0.00 0.00 67 1014.9
20260831103013 73 131 0.0 0.0 0.00 0.00 0.00 68 1015.0
20260831101513 73 132 0.0 0.0 0.00 0.00 0.00 69 1014.9
20260831100022 73 132 0.0 0.0 0.00 0.00 0.00 69 1014.8
20260831094513 73 132 0.0 0.0 0.00 0.00 0.00 68 1014.8
20260831093012 74 131 0.0 0.0 0.00 0.00 0.00 67 1014.9
20260831091507 75 132 0.0 0.0 0.00 0.00 0.00 65 1014.8
20260831090003 75 132 0.0 0.0 0.00 0.00 0.00 64 1014.7
20260831084610 76 132 0.0 0.0 0.00 0.00 0.00 62 1014.6
20260831083057 77 132 0.0 0.0 0.00 0.00 0.00 61 1014.5
20260831081555 78 132 0.0 1.0 0.00 0.00 0.00 59 1014.4
20260831080104 78 152 0.0 1.0 0.00 0.00 0.00 58 1014.3
20260831074552 79 255 0.0 2.0 0.00 0.00 0.00 58 1014.3
20260831073053 79 114 0.0 3.0 0.00 0.00 0.00 57 1014.4
20260831071549 79 57 0.0 2.0 0.00 0.00 0.00 59 1014.4
20260831070054 79 121 0.0 2.0 0.00 0.00 0.00 59 1014.4
20260831064548 79 120 0.0 2.0 0.00 0.00 0.00 60 1014.5
20260831063046 79 103 0.0 3.0 0.00 0.00 0.00 60 1014.5
20260831061545 79 104 0.0 3.0 0.00 0.00 0.00 60 1014.7
20260831060044 79 148 0.0 3.0 0.00 0.00 0.00 59 1014.7
20260831054542 80 155 0.0 1.0 0.00 0.00 0.00 60 1014.7
20260831053041 80 138 0.0 3.0 0.00 0.00 0.00 60 1014.6
20260831051544 80 148 0.0 1.0 0.00 0.00 0.00 60 1014.6
20260831050037 80 124 0.0 3.0 0.00 0.00 0.00 59 1014.7
20260831044548 80 86 0.0 1.0 0.00 0.00 0.00 59 1014.6
20260831043036 81 134 0.0 0.0 0.00 0.00 0.00 58 1014.5
20260831041546 81 169 0.0 2.0 0.00 0.00 0.00 57 1014.5
20260831040036 82 117 0.0 1.0 0.00 0.00 0.00 57 1014.5
20260831034535 82 133 0.0 2.0 0.00 0.00 0.00 56 1014.4
20260831033034 82 88 0.0 1.0 0.00 0.00 0.00 56 1014.3
20260831031534 83 179 0.0 2.0 0.00 0.00 0.00 56 1014.2
20260831030033 83 96 0.0 2.0 0.00 0.00 0.00 55 1014.3
20260831024534 84 127 0.0 2.0 0.00 0.00 0.00 55 1014.3
20260831023032 84 134 0.0 2.0 0.00 0.00 0.00 54 1014.2
20260831021537 84 157 0.0 3.0 0.00 0.00 0.00 54 1014.2
20260831020031 85 106 0.0 3.0 0.00 0.00 0.00 53 1014.0
20260831014529 85 121 0.0 2.0 0.00 0.00 0.00 52 1014.0
20260831013030 86 127 0.0 3.0 0.00 0.00 0.00 51 1013.7
20260831011534 86 132 0.0 1.0 0.00 0.00 0.00 50 1013.7
20260831010028 87 169 0.0 4.0 0.00 0.00 0.00 49 1013.5
20260831004528 88 285 0.0 3.0 0.00 0.00 0.00 47 1013.6
20260831003027 89 100 0.0 2.0 0.00 0.00 0.00 46 1013.6
20260831001526 90 96 0.0 3.0 0.00 0.00 0.00 44 1013.6
20260831000037 90 77 1.0 6.0 0.00 0.00 0.00 42 1013.5
20260830234525 91 123 0.0 2.0 0.00 0.00 0.00 41 1013.6
20260830233034 92 108 1.0 4.0 0.00 0.00 0.00 40 1013.7
20260830231530 93 130 0.0 6.0 0.00 0.00 0.00 40 1013.6